When you browse on this site, cookies collect data to enhance your experience and personalize the content and advertising you see.
Visit our Privacy Policy to learn more. By continuing to use the site, you agree to this use of cookies and data.
  • In Hungary
  • List of Countries
  • For 7 days
  • Water Temperature
  • Satellite Maps
  • Weather Map
  • News
  • Weather Widgets
  • user-avatar
    Login

    Hourly Weather Cabra

    Today, 17 June, Monday

    Time Temperature Precipitation Wind Pressure Humidity
    00:00 +16°C° 0 mm 1 mps 721 mmHg 54%
    01:00 +16°C° 0 mm 1 mps 721 mmHg 55%
    02:00 +14°C° 0 mm 0 mps 721 mmHg 56%
    03:00 +14°C° 0 mm 0 mps 720 mmHg 57%
    04:00 +14°C° 0 mm 0 mps 720 mmHg 56%
    05:00 +15°C° 0 mm 0 mps 721 mmHg 55%
    06:00 +18°C° 0 mm 1 mps 721 mmHg 52%
    07:00 +20°C° 0 mm 1 mps 721 mmHg 46%
    08:00 +23°C° 0 mm 1 mps 721 mmHg 39%
    09:00 +23°C° 0 mm 0 mps 721 mmHg 32%
    10:00 +27°C° 0 mm 1 mps 721 mmHg 27%
    11:00 +29°C° 0 mm 2 mps 721 mmHg 23%
    12:00 +31°C° 0 mm 2 mps 721 mmHg 18%
    13:00 +33°C° 0 mm 3 mps 721 mmHg 17%
    14:00 +34°C° 0 mm 4 mps 720 mmHg 16%
    15:00 +34°C° 0 mm 5 mps 720 mmHg 14%
    16:00 +33°C° 0 mm 5 mps 720 mmHg 16%
    17:00 +33°C° 0 mm 5 mps 720 mmHg 18%
    18:00 +32°C° 0 mm 5 mps 719 mmHg 19%
    19:00 +28°C° 0 mm 4 mps 719 mmHg 28%
    20:00 +25°C° 0 mm 3 mps 719 mmHg 36%
    21:00 +20°C° 0 mm 2 mps 719 mmHg 45%
    22:00 +19°C° 0 mm 2 mps 719 mmHg 49%
    23:00 +19°C° 0 mm 1 mps 719 mmHg 53%

    Tomorrow, 18 June, Tuesday

    Time Temperature Precipitation Wind Pressure Humidity
    00:00 +18°C° 0 mm 1 mps 719 mmHg 57%
    01:00 +16°C° 0 mm 1 mps 719 mmHg 59%
    02:00 +14°C° 0 mm 0 mps 719 mmHg 61%
    03:00 +14°C° 0 mm 0 mps 719 mmHg 64%
    04:00 +14°C° 0 mm 0 mps 719 mmHg 63%
    05:00 +14°C° 0 mm 0 mps 719 mmHg 62%
    06:00 +15°C° 0 mm 0 mps 719 mmHg 61%
    07:00 +19°C° 0 mm 1 mps 720 mmHg 54%
    08:00 +21°C° 0 mm 1 mps 720 mmHg 46%
    09:00 +23°C° 0 mm 2 mps 720 mmHg 39%
    10:00 +25°C° 0 mm 3 mps 720 mmHg 33%
    11:00 +27°C° 0 mm 3 mps 720 mmHg 28%
    12:00 +29°C° 0 mm 4 mps 720 mmHg 23%
    13:00 +30°C° 0 mm 4 mps 720 mmHg 21%
    14:00 +32°C° 0 mm 4 mps 720 mmHg 19%
    15:00 +33°C° 0 mm 5 mps 719 mmHg 17%
    16:00 +32°C° 0 mm 5 mps 719 mmHg 20%
    17:00 +30°C° 0 mm 6 mps 719 mmHg 23%
    18:00 +30°C° 0 mm 7 mps 719 mmHg 26%
    19:00 +27°C° 0 mm 5 mps 719 mmHg 37%
    20:00 +23°C° 0 mm 4 mps 719 mmHg 47%
    21:00 +20°C° 0 mm 2 mps 719 mmHg 57%
    22:00 +19°C° 0 mm 2 mps 719 mmHg 65%
    23:00 +18°C° 0 mm 2 mps 719 mmHg 72%

    Day after tomorrow, 19 June, Wednesday

    Time Temperature Precipitation Wind Pressure Humidity
    00:00 +18°C° 0 mm 1 mps 719 mmHg 80%
    01:00 +16°C° 0 mm 1 mps 719 mmHg 83%
    02:00 +16°C° 0 mm 1 mps 719 mmHg 87%
    03:00 +14°C° 0 mm 0 mps 718 mmHg 90%
    04:00 +15°C° 0 mm 0 mps 719 mmHg 88%
    05:00 +15°C° 0 mm 0 mps 719 mmHg 87%
    06:00 +16°C° 0 mm 0 mps 719 mmHg 85%
    07:00 +19°C° 0 mm 1 mps 719 mmHg 78%
    08:00 +21°C° 0 mm 1 mps 719 mmHg 71%
    09:00 +21°C° 0 mm 2 mps 719 mmHg 64%
    10:00 +24°C° 0 mm 2 mps 719 mmHg 55%
    11:00 +26°C° 0 mm 3 mps 720 mmHg 45%
    12:00 +28°C° 0 mm 3 mps 720 mmHg 36%
    13:00 +29°C° 0 mm 4 mps 719 mmHg 32%
    14:00 +32°C° 0 mm 4 mps 719 mmHg 28%
    15:00 +33°C° 0 mm 4 mps 718 mmHg 24%
    16:00 +32°C° 0 mm 5 mps 718 mmHg 24%
    17:00 +32°C° 0 mm 5 mps 718 mmHg 25%
    18:00 +30°C° 0 mm 5 mps 718 mmHg 26%
    19:00 +27°C° 0 mm 5 mps 718 mmHg 37%
    20:00 +23°C° 0 mm 4 mps 718 mmHg 49%
    21:00 +19°C° 0 mm 3 mps 718 mmHg 61%
    22:00 +18°C° 0 mm 2 mps 718 mmHg 67%
    23:00 +17°C° 0 mm 2 mps 718 mmHg 74%

    20 June, Thursday

    Time Temperature Precipitation Wind Pressure Humidity
    00:00 +18°C° 0 mm 1 mps 718 mmHg 80%
    01:00 +16°C° 0 mm 1 mps 718 mmHg 82%
    02:00 +16°C° 0 mm 1 mps 718 mmHg 84%
    03:00 +14°C° 0 mm 0 mps 717 mmHg 86%
    04:00 +15°C° 0 mm 0 mps 718 mmHg 86%
    05:00 +15°C° 0 mm 0 mps 718 mmHg 85%
    06:00 +15°C° 0 mm 0 mps 718 mmHg 85%
    07:00 +19°C° 0 mm 1 mps 718 mmHg 76%
    08:00 +21°C° 0 mm 1 mps 718 mmHg 67%
    09:00 +23°C° 0 mm 2 mps 719 mmHg 58%
    10:00 +25°C° 0 mm 3 mps 719 mmHg 50%
    11:00 +27°C° 0 mm 3 mps 719 mmHg 42%
    12:00 +29°C° 0 mm 4 mps 719 mmHg 34%
    13:00 +30°C° 0 mm 4 mps 718 mmHg 30%
    14:00 +32°C° 0 mm 4 mps 718 mmHg 27%
    15:00 +33°C° 0 mm 5 mps 718 mmHg 23%
    16:00 +32°C° 0 mm 5 mps 717 mmHg 25%
    17:00 +30°C° 0 mm 6 mps 717 mmHg 27%
    18:00 +29°C° 0 mm 7 mps 717 mmHg 29%
    19:00 +26°C° 0 mm 5 mps 717 mmHg 40%
    20:00 +22°C° 0 mm 4 mps 717 mmHg 51%
    21:00 +19°C° 0 mm 2 mps 717 mmHg 62%
    22:00 +18°C° 0 mm 2 mps 717 mmHg 65%
    23:00 +18°C° 0 mm 1 mps 717 mmHg 69%

    21 June, Friday

    Time Temperature Precipitation Wind Pressure Humidity
    00:00 +18°C° 0 mm 1 mps 718 mmHg 72%
    01:00 +16°C° 0 mm 1 mps 718 mmHg 74%
    02:00 +16°C° 0 mm 1 mps 717 mmHg 76%
    03:00 +15°C° 0 mm 1 mps 717 mmHg 78%
    04:00 +15°C° 0 mm 0 mps 717 mmHg 76%
    05:00 +15°C° 0 mm 0 mps 718 mmHg 75%
    06:00 +15°C° 0 mm 0 mps 718 mmHg 73%
    07:00 +20°C° 0 mm 1 mps 718 mmHg 64%
    08:00 +22°C° 0 mm 1 mps 719 mmHg 54%
    09:00 +24°C° 0 mm 2 mps 719 mmHg 45%
    10:00 +26°C° 0 mm 3 mps 719 mmHg 38%
    11:00 +28°C° 0 mm 3 mps 719 mmHg 30%
    12:00 +30°C° 0 mm 4 mps 719 mmHg 22%
    13:00 +30°C° 0 mm 4 mps 718 mmHg 20%
    14:00 +32°C° 0 mm 5 mps 718 mmHg 17%
    15:00 +33°C° 0 mm 5 mps 718 mmHg 15%
    16:00 +33°C° 0 mm 5 mps 718 mmHg 14%
    17:00 +32°C° 0 mm 4 mps 718 mmHg 14%
    18:00 +32°C° 0 mm 4 mps 718 mmHg 13%
    19:00 +28°C° 0 mm 3 mps 718 mmHg 21%
    20:00 +25°C° 0 mm 2 mps 718 mmHg 28%
    21:00 +21°C° 0 mm 1 mps 718 mmHg 35%
    22:00 +21°C° 0 mm 1 mps 718 mmHg 37%
    23:00 +20°C° 0 mm 1 mps 718 mmHg 39%

    22 June, Saturday

    Time Temperature Precipitation Wind Pressure Humidity
    00:00 +17°C° 0 mm 0 mps 718 mmHg 41%
    01:00 +17°C° 0 mm 0 mps 718 mmHg 43%
    02:00 +16°C° 0 mm 0 mps 718 mmHg 45%
    03:00 +15°C° 0 mm 0 mps 717 mmHg 47%
    04:00 +16°C° 0 mm 0 mps 717 mmHg 46%
    05:00 +16°C° 0 mm 0 mps 718 mmHg 46%
    06:00 +17°C° 0 mm 0 mps 718 mmHg 45%
    07:00 +22°C° 0 mm 1 mps 718 mmHg 38%
    08:00 +25°C° 0 mm 1 mps 719 mmHg 30%
    09:00 +28°C° 0 mm 1 mps 719 mmHg 23%
    10:00 +30°C° 0 mm 2 mps 719 mmHg 20%
    11:00 +33°C° 0 mm 3 mps 719 mmHg 17%
    12:00 +34°C° 0 mm 4 mps 719 mmHg 14%
    13:00 +35°C° 0 mm 4 mps 719 mmHg 15%
    14:00 +35°C° 0 mm 5 mps 718 mmHg 15%
    15:00 +36°C° 0 mm 5 mps 718 mmHg 15%
    16:00 +35°C° 0 mm 5 mps 718 mmHg 17%
    17:00 +34°C° 0 mm 5 mps 717 mmHg 19%
    18:00 +34°C° 0 mm 4 mps 717 mmHg 21%
    19:00 +29°C° 0 mm 4 mps 717 mmHg 31%
    20:00 +26°C° 0 mm 3 mps 717 mmHg 42%
    21:00 +22°C° 0 mm 3 mps 717 mmHg 53%
    22:00 +21°C° 0 mm 2 mps 717 mmHg 56%
    23:00 +20°C° 0 mm 2 mps 717 mmHg 59%
    Show more